Location: Forli
(44.2227°N, 12.0407°E)
Time: 03:00:35
(UTC+02:00)

DX 1 - Pass Details

Date: 17 April 2026
Orbit: 593 x 604 km, 98.4° (Epoch: 19 May)

Event Time Altitude Azimuth Distance (km) Brightness Sun altitude
Rises 03:35:06 0° 23° (NNE) 2,841 ? -26.4°
Reaches altitude 10° 03:37:29 10° 35° (NE) 1,934 ? -26.1°
Maximum altitude 03:41:12 30° 97° (E) 1,072 ? -25.7°
Enters shadow 03:42:04 28° 120° (ESE) 1,134 ? -25.6°
